[[{"header":{"parameterUnit":"m.s-1","parameterCategory":1,"la1":30.2991,"la2":30.254,"lo1":-89.0895,"lo2":-89.0444,"dy":0.0017,"dx":0.0017,"nx":28,"ny":28,"refTime":"2023-07-23T21:00:00:Z","depth":0,"parameterNumber":2,"parameterNumberName":"U-component_of_WINDS"},"data":[0,0,0,0,0,0,0,0,0,0,0,0,0,0,0,0,0,0,0,0,0,0,0,0,0,0,0,0,0,0,0,0,0,0,0,0,0,0,0,0,0,0,0,0,0,0,0,0,0,0,0,0,0,0,0,0,0,0,2.541,2.5411,0,2.5572,2.5574,2.5576,2.5585,2.5583,2.5581,2.558,2.5747,2.5753,2.5759,0,0,0,0,0,0,0,0,0,0,0,0,0,2.5106,2.5112,2.5409,2.5411,2.5413,2.5572,2.5574,2.5576,2.5585,2.5583,2.5581,2.5579,2.5745,2.5753,2.576,0,0,0,0,0,0,0,0,0,0,0,0,0,2.525,2.5114,2.5409,2.5437,2.5441,2.5571,2.5574,2.5577,2.5586,2.5583,2.558,2.5578,2.5743,2.5752,2.5761,2.5874,0,0,2.5789,2.5793,0,0,0,0,0,0,0,0,2.5242,2.5261,2.5431,2.5435,2.544,2.5555,2.5529,2.5677,2.5587,2.5531,2.558,2.5576,2.5686,2.57,2.5736,2.5882,2.5889,2.579,2.5796,2.58,2.5802,0,0,0,0,0,0,0,2.5232,2.5254,2.5474,2.5433,2.5439,2.5441,2.5459,2.5557,2.5622,2.5536,2.5537,2.5556,2.5688,2.5727,2.574,2.5892,2.579,2.5798,2.5804,2.5808,2.6136,2.6139,0,0,0,0,0,0,2.5217,2.5246,2.5469,2.5479,2.5332,2.5449,2.5469,2.5521,2.5621,2.5634,2.5558,2.5556,2.5713,2.5729,2.5746,2.5883,2.58,2.5809,2.5814,2.6133,2.6137,2.614,0,0,0,0,0,0,2.521,2.5236,2.5462,2.5363,2.5392,2.5457,2.5516,2.5526,2.5565,2.5638,2.565,2.5586,2.5711,2.5733,2.5842,2.5889,2.5813,2.5821,2.6129,2.6134,2.6139,2.6159,0,0,0,0,0,0,2.5201,2.5234,2.5278,2.5364,2.5397,2.5555,2.552,2.5531,2.5581,2.558,2.5668,2.568,2.5711,2.5828,2.5851,2.59,2.5828,2.6125,2.6132,2.6137,2.6154,2.6164,2.6172,0,0,0,0,0,2.5191,2.5278,2.528,2.5307,2.5453,2.5558,2.5577,2.561,2.5585,2.5629,2.5676,2.5677,2.5881,2.5839,2.5865,2.5918,2.6122,2.613,2.6137,2.615,2.6162,2.6172,0,0,0,0,0,0,2.5197,2.529,2.5293,2.5411,2.5476,2.5559,2.5616,2.5622,2.5696,2.5692,2.5731,2.5751,2.5857,2.5899,2.5851,2.6032,2.5999,2.6011,2.6,2.6012,2.602,2.6007,2.5836,0,0,0,0,0,2.5213,2.529,2.5367,2.5463,2.5496,2.555,2.5597,2.5617,2.5687,2.5714,2.5769,2.5836,2.5915,2.5966,2.6043,2.6161,2.6179,2.621,2.6219,2.6226,2.6236,2.6299,2.6313,2.6164,2.6163,2.6163,0,0,2.5245,2.5305,2.5351,2.5466,2.5519,2.5597,2.5573,2.5658,2.5716,2.5727,2.5832,2.5874,2.5952,2.6065,2.6118,2.6103,2.6281,2.6235,2.624,2.6246,2.6307,2.6321,2.6334,2.6168,2.6167,2.6167,0,0,2.5343,2.5397,2.5482,2.5535,2.5615,2.565,2.5671,2.5752,2.578,2.5886,2.5895,2.5966,2.6102,2.6155,2.6201,2.6317,2.632,2.6341,2.6386,2.6447,2.6459,2.647,2.6508,2.6522,2.6351,2.6351,2.6351,0,2.5373,2.5491,2.5525,2.5609,2.5658,2.5671,2.5756,2.5807,2.5908,2.5941,2.5923,2.6092,2.6146,2.627,2.6298,2.6336,2.6359,2.6331,2.6455,2.6465,2.6476,2.6513,2.6528,2.6353,2.6353,2.6353,2.6353,0,2.5522,2.5604,2.5663,2.5758,2.5815,2.5899,2.5945,2.5998,2.6013,2.605,2.6157,2.6221,2.631,2.6342,2.6358,2.6468,2.6456,2.6446,2.6413,2.6491,2.6527,2.6542,2.6356,2.6355,2.6355,2.6354,0,0,2.5628,2.5741,2.5762,2.5804,2.5892,2.5956,2.6041,2.6127,2.617,2.6239,2.631,2.6424,2.6414,2.6465,2.6488,2.6542,2.6626,2.6525,2.6527,2.6539,2.6748,2.6753,2.6769,2.663,2.6633,2.6635,2.6741,0,2.5734,2.5883,2.5916,2.6044,2.6119,2.6132,2.6205,2.6267,2.6304,2.6372,2.6413,2.6492,2.6475,2.6505,2.6559,2.6604,2.6668,2.6598,2.6694,2.6697,2.6671,2.6789,2.6795,2.6892,2.6755,2.6758,2.676,0,2.5877,2.5947,2.6083,2.6159,2.6192,2.6257,2.6337,2.6403,2.6473,2.6495,2.6552,2.6568,2.6655,2.662,2.6739,2.669,2.6732,2.676,2.6765,2.6773,2.6731,2.6798,2.6924,2.6937,2.6783,2.6781,2.6779,0,2.5937,2.6067,2.6163,2.62,2.6292,2.6337,2.6378,2.6445,2.6493,2.6564,2.6596,2.6676,2.6719,2.6781,2.6818,2.6789,2.6934,2.6902,2.6954,2.6953,2.6982,2.6979,2.7114,2.7013,2.7013,2.7013,2.7012,0,2.605,2.6131,2.6191,2.6251,2.6342,2.6379,2.6468,2.6509,2.6568,2.6635,2.6653,2.6715,2.6762,2.683,2.6861,2.6953,2.6974,2.6994,2.7,2.6991,2.6988,2.7017,2.701,2.7017,2.7016,2.7015,2.7014,0,2.6132,2.6175,2.6281,2.6359,2.6381,2.6444,2.6511,2.6569,2.6606,2.669,2.6712,2.677,2.6852,2.6895,2.6998,2.7018,2.7122,2.7126,2.7097,2.71,2.7148,2.7142,2.7304,2.7326,2.7213,2.7214,2.7215,0,2.6199,2.6262,2.6346,2.6392,2.6433,2.6507,2.6556,2.6595,2.6645,2.6728,2.6776,2.6858,2.6926,2.7056,2.7107,2.7185,2.719,2.7241,2.7202,2.7189,2.7187,2.7182,2.7187,2.7247,2.7248,2.7249,2.725,0,2.6314,2.6332,2.6402,2.648,2.6538,2.6601,2.6663,2.67,2.6748,2.6804,2.6887,2.694,2.7044,2.7125,2.7207,2.7248,2.7257,2.7262,2.7278,2.7268,2.7247,2.7256,2.7113,2.7258,2.7257,2.7257,2.7256,2.7256,2.6389,2.6444,2.6511,2.6588,2.6639,2.6697,2.6754,2.6797,2.6867,2.6953,2.6973,2.706,2.7127,2.7237,2.7281,2.7349,2.7339,2.7363,2.7368,2.7373,2.7373,2.7238,2.7365,2.7365,2.7365,2.7365,2.7364,0,2.6502,2.6545,2.6616,2.6702,2.6762,2.6765,2.6833,2.6883,2.6959,2.7021,2.7087,2.7181,2.7259,2.7316,2.7396,2.744,2.7445,2.7459,2.7455,2.7464,2.7379,2.7356,2.7453,2.7453,2.7453,2.7453,2.7453,2.7453,2.6568,2.666,2.6686,2.6803,2.6847,2.6931,2.697,2.7022,2.7071,2.7175,2.724,2.7276,2.7336,2.7419,2.7491,2.7506,2.7533,2.7546,2.7561,2.748,2.747,2.7461,2.744,2.7552,2.7552,2.7639,2.764,2.7641]},{"header":{"parameterUnit":"m.s-1","parameterCategory":1,"la1":30.2991,"la2":30.254,"lo1":-89.0895,"lo2":-89.0444,"dy":0.0017,"dx":0.0017,"nx":28,"ny":28,"refTime":"2023-07-23T21:00:00:Z","depth":0,"parameterNumber":3,"parameterNumberName":"V-component_of_WINDS"},"data":[0,0,0,0,0,0,0,0,0,0,0,0,0,0,0,0,0,0,0,0,0,0,0,0,0,0,0,0,0,0,0,0,0,0,0,0,0,0,0,0,0,0,0,0,0,0,0,0,0,0,0,0,0,0,0,0,0,0,0.7039,0.7039,0,0.7047,0.7048,0.7048,0.7009,0.7008,0.7006,0.7005,0.7013,0.7015,0.7016,0,0,0,0,0,0,0,0,0,0,0,0,0,0.6988,0.699,0.7039,0.7039,0.7039,0.7047,0.7048,0.7048,0.7009,0.7008,0.7006,0.7005,0.7013,0.7015,0.7016,0,0,0,0,0,0,0,0,0,0,0,0,0,0.7005,0.699,0.7039,0.7021,0.702,0.7047,0.7048,0.7048,0.7009,0.7008,0.7006,0.7004,0.7013,0.7014,0.7016,0.7062,0,0,0.7022,0.7023,0,0,0,0,0,0,0,0,0.7004,0.7007,0.7024,0.7022,0.7021,0.7025,0.7033,0.7052,0.701,0.7013,0.7005,0.7003,0.7019,0.702,0.7025,0.7062,0.7063,0.7022,0.7023,0.7024,0.7025,0,0,0,0,0,0,0,0.7003,0.7006,0.7042,0.7024,0.7022,0.7012,0.7013,0.7036,0.7025,0.7013,0.701,0.7011,0.7018,0.7024,0.7025,0.7063,0.7022,0.7024,0.7025,0.7026,0.7136,0.7137,0,0,0,0,0,0,0.7004,0.7006,0.7042,0.7043,0.7008,0.7014,0.7015,0.7026,0.7025,0.7023,0.7013,0.701,0.7021,0.7023,0.7025,0.7077,0.7024,0.7026,0.7027,0.7134,0.7136,0.7138,0,0,0,0,0,0,0.7003,0.7008,0.7042,0.7023,0.7027,0.7017,0.7029,0.7027,0.7032,0.7025,0.7023,0.7021,0.702,0.7023,0.7053,0.7077,0.7027,0.7029,0.7132,0.7135,0.7137,0.7183,0,0,0,0,0,0,0.7002,0.7008,0.7026,0.7024,0.7028,0.707,0.7031,0.7028,0.7036,0.7032,0.7032,0.7031,0.7019,0.705,0.7055,0.7079,0.703,0.713,0.7133,0.7136,0.7179,0.7187,0.7194,0,0,0,0,0,0.7001,0.7039,0.7027,0.7031,0.705,0.7071,0.7073,0.7059,0.7038,0.7055,0.705,0.7031,0.7074,0.7053,0.7058,0.7084,0.7128,0.7132,0.7136,0.7176,0.7186,0.7193,0,0,0,0,0,0,0.7044,0.7038,0.7025,0.7064,0.7068,0.7065,0.7086,0.707,0.708,0.7076,0.7058,0.7058,0.7091,0.709,0.7068,0.7127,0.7097,0.7102,0.7126,0.7135,0.7142,0.7141,0.7032,0,0,0,0,0,0.7058,0.7076,0.707,0.7104,0.7107,0.7096,0.7105,0.7094,0.7098,0.7099,0.7096,0.7101,0.7115,0.7125,0.7138,0.7179,0.7178,0.7199,0.7206,0.7212,0.7216,0.7237,0.7245,0.7151,0.7151,0.7151,0,0,0.7087,0.7086,0.7098,0.7113,0.7115,0.7133,0.7098,0.712,0.7133,0.7102,0.713,0.7128,0.7132,0.7167,0.7183,0.7168,0.7242,0.7217,0.7222,0.7223,0.7242,0.7251,0.7259,0.7154,0.7153,0.7153,0,0,0.7149,0.7151,0.7179,0.7182,0.7185,0.7177,0.7184,0.7183,0.718,0.7208,0.7185,0.72,0.7226,0.7229,0.7234,0.7296,0.7278,0.7301,0.7338,0.7358,0.7365,0.7372,0.7393,0.7401,0.7305,0.7305,0.7306,0,0.7185,0.7212,0.7196,0.7218,0.7225,0.7198,0.7226,0.7229,0.7237,0.7241,0.7225,0.7255,0.7256,0.7291,0.7306,0.7311,0.7318,0.73,0.7366,0.7372,0.7378,0.7398,0.7406,0.7308,0.7308,0.7308,0.7307,0,0.7255,0.7274,0.7296,0.7304,0.7313,0.7338,0.7325,0.7336,0.7324,0.7318,0.7346,0.7345,0.7357,0.7364,0.7353,0.7398,0.7388,0.7369,0.7338,0.739,0.7408,0.7416,0.7312,0.7311,0.731,0.731,0,0,0.7345,0.7342,0.7351,0.7353,0.7354,0.7368,0.7392,0.7403,0.7413,0.7419,0.7437,0.7459,0.7441,0.7446,0.7435,0.7452,0.75,0.743,0.743,0.7443,0.7548,0.7562,0.7571,0.7488,0.7489,0.7491,0.7548,0,0.7405,0.7445,0.743,0.7471,0.7488,0.7462,0.7482,0.7485,0.7479,0.7492,0.7486,0.7502,0.7477,0.748,0.7496,0.7491,0.7521,0.7487,0.7504,0.7505,0.7504,0.7581,0.7596,0.765,0.7555,0.7556,0.7557,0,0.748,0.7488,0.7531,0.7528,0.7534,0.7553,0.7561,0.7574,0.7577,0.7571,0.7577,0.7561,0.7583,0.7553,0.7583,0.756,0.7566,0.7565,0.7566,0.7567,0.7534,0.7583,0.7667,0.7675,0.7568,0.7567,0.7566,0,0.754,0.7562,0.759,0.7593,0.7591,0.7604,0.7604,0.7604,0.7611,0.7619,0.7623,0.7633,0.7639,0.7647,0.7633,0.7613,0.7665,0.7634,0.766,0.7661,0.7672,0.7671,0.7757,0.7678,0.7677,0.7677,0.7677,0,0.7608,0.7635,0.7616,0.7633,0.7662,0.7645,0.7674,0.7671,0.7671,0.7686,0.7665,0.768,0.7662,0.7675,0.7665,0.769,0.7693,0.7689,0.7686,0.7691,0.7691,0.7694,0.769,0.7679,0.7679,0.7679,0.7678,0,0.768,0.7669,0.7697,0.7692,0.7692,0.7713,0.7708,0.7724,0.7716,0.7736,0.774,0.7729,0.7743,0.7731,0.7745,0.7738,0.7771,0.7763,0.7771,0.7768,0.7795,0.7792,0.7885,0.7896,0.781,0.7811,0.7812,0,0.7724,0.7743,0.774,0.7749,0.775,0.7764,0.7771,0.7755,0.7763,0.7767,0.7781,0.7794,0.7802,0.7826,0.7819,0.7829,0.7821,0.7853,0.7822,0.7826,0.782,0.7819,0.782,0.7859,0.786,0.7861,0.7861,0,0.7802,0.7795,0.7806,0.7815,0.7824,0.7831,0.7835,0.7844,0.7827,0.7837,0.7851,0.7858,0.7872,0.7884,0.7891,0.7891,0.7873,0.7871,0.7877,0.7882,0.7885,0.7883,0.7787,0.7869,0.7868,0.7867,0.7867,0.7867,0.786,0.7876,0.7876,0.7889,0.789,0.7895,0.7909,0.7903,0.7914,0.7924,0.7914,0.793,0.7931,0.794,0.7941,0.7953,0.794,0.795,0.7952,0.7954,0.7958,0.7884,0.7955,0.7955,0.7954,0.7954,0.7954,0,0.7937,0.7935,0.7947,0.7954,0.7963,0.7946,0.795,0.7959,0.7974,0.7976,0.7985,0.8001,0.8012,0.8006,0.8016,0.8027,0.8019,0.803,0.8028,0.8028,0.797,0.7963,0.8036,0.8036,0.8036,0.8036,0.8036,0.8036,0.7977,0.8003,0.7996,0.8021,0.802,0.8036,0.8039,0.8043,0.8044,0.8063,0.8072,0.8068,0.8066,0.8075,0.8085,0.8083,0.8087,0.8101,0.8095,0.8041,0.8033,0.8025,0.8018,0.8102,0.8102,0.8153,0.8153,0.8154]}]]